This demonstration page uses our WeatherBlox Daily Observations layout. Learn more.

Left ArrowRight Arrow

41.86663, -103.66717

Hourly Observations for April 29, 2017

Temp ( °F °C ) Dew Point ( °F °C ) Humidity (%) Winds ( mph kmh ) Pressure ( in mb ) Visibility ( mi km ) Precip ( " mm )
12:53 am 00:53 Cloudy 34 1.1 31 -0.6 89 89 NNW 5 7 30.21 1023 10 16.0934 N/A
1:53 am 01:53 Cloudy 34 1.1 29 -1.7 82 82 N 3 6 30.22 1023 10 16.0934 N/A
2:53 am 02:53 Cloudy 33 0.6 28 -2.2 82 82 N 9 15 30.19 1022 10 16.0934 N/A
3:53 am 03:53 Cloudy 33 0.6 27 -2.8 78 78 NNE 8 13 30.21 1023 10 16.0934 N/A
4:53 am 04:53 Cloudy 33 0.6 27 -2.8 78 78 NNE 7 11 30.22 1024 10 16.0934 N/A
5:53 am 05:53 Cloudy 32 undefined 27 -2.8 82 82 N 8 13 30.24 1024 10 16.0934 N/A
6:53 am 06:53 Cloudy 33 0.6 26 -3.3 75 75 N 10 17 30.27 1025 10 16.0934 N/A
7:53 am 07:53 Cloudy 34 1.1 26 -3.3 73 73 N 7 11 30.32 1027 10 16.0934 N/A
8:53 am 08:53 Cloudy 35 1.7 26 -3.3 70 70 N 9 15 30.31 1026 10 16.0934 N/A
9:53 am 09:53 Cloudy 37 2.8 26 -3.3 65 65 NNE 14 22 30.3 1026 10 16.0934 N/A
10:53 am 10:53 Sunny 41 5 26 -3.3 55 55 N 14 22 30.29 1026 10 16.0934 N/A
11:53 am 11:53 Sunny 42 5.6 24 -4.4 49 49 N 14 22 30.3 1026 10 16.0934 N/A
12:53 pm 12:53 Sunny 43 6.1 24 -4.4 47 47 N 14 22 30.27 1025 10 16.0934 N/A
1:53 pm 13:53 Mostly Cloudy 43 6.1 23 -5 45 45 N 20 31 30.25 1025 10 16.0934 N/A
2:53 pm 14:53 Cloudy 44 6.7 25 -3.9 47 47 N 16 26 30.23 1024 10 16.0934 N/A
3:53 pm 15:53 Partly Cloudy 45 7.2 25 -3.9 46 46 N 15 24 30.23 1024 10 16.0934 N/A
4:53 pm 16:53 Partly Cloudy 45 7.2 26 -3.3 48 48 N 13 20 30.22 1023 10 16.0934 N/A
5:53 pm 17:53 Mostly Cloudy 45 7.2 26 -3.3 48 48 N 9 15 30.21 1023 10 16.0934 N/A
6:53 pm 18:53 Mostly Cloudy 44 6.7 27 -2.8 51 51 NW 10 17 30.2 1023 10 16.0934 N/A
7:53 pm 19:53 Clear 42 5.6 31 -0.6 65 65 NW 7 11 30.21 1023 10 16.0934 N/A
8:53 pm 20:53 Cloudy 41 5 31 -0.6 67 67 NNW 6 9 30.22 1024 10 16.0934 N/A
9:53 pm 21:53 Clear 38 3.3 29 -1.7 70 70 N 6 9 30.23 1024 10 16.0934 N/A
10:53 pm 22:53 Clear 33 0.6 26 -3.3 75 75 NW 5 7 30.22 1023 10 16.0934 N/A
11:53 pm 23:53 Clear 33 0.6 26 -3.3 75 75 NNW 5 7 30.19 1022 10 16.0934 N/A

Powered by AerisWeather